Theta_e
316 317 315 315 315 316 316 315 315 315 315 314 313 314 313 314 313 313 313 313 313 313 313 313 313 313 313 314 314 313 312 311 310 310 311 311 311 312 312 312 314 314
315 315 315 315 314 314 314 315 315 314 313 313 313 313 313 313 312 312 312 311 311 311 311 312 312 312 312 312 313 312 311 311 310 311 311 311 311 311 311 312 312 313
314 314 314 313 312 313 313 313 314 313 312 312 313 313 312 312 311 311 311 310 310 310 310 310 311 311 310 311 312 312 312 311 311 312 312 311 311 310 311 311 311 311
314 313 313 313 312 312 313 313 312 312 313 312 311 311 311 311 311 310 310 310 309 309 309 309 309 310 310 310 311 310 311 310 310 311 311 311 311 311 311 311 311 311
312 312 312 312 311 311 312 311 311 311 311 310 311 311 310 310 309 309 309 308 309 308 308 307 308 308 309 309 309 308 308 308 309 310 309 309 311 311 310 310 310 310
311 310 310 310 311 311 310 310 309 310 310 310 310 310 309 309 309 308 308 307 307 307 307 307 306 307 308 307 308 307 307 307 307 308 307 307 309 309 309 309 309 308
310 310 310 310 310 310 310 310 310 310 309 309 309 309 309 308 308 308 307 307 306 306 306 306 306 306 306 307 306 306 306 306 306 306 305 306 307 307 308 308 308 307
309 310 309 310 310 309 309 308 308 308 309 309 308 308 308 307 307 308 307 307 306 305 305 305 305 305 306 306 305 305 305 306 305 305 305 305 306 305 306 307 307 306
309 308 308 308 308 308 308 307 307 308 308 308 307 307 308 307 307 307 307 306 306 305 305 304 304 304 305 305 304 304 304 304 304 304 304 304 304 304 305 306 305 305
308 308 308 308 307 307 308 308 308 307 307 307 307 307 306 307 307 306 306 306 305 305 304 303 304 304 304 304 304 304 304 303 303 304 304 304 303 304 304 304 304 303
307 307 307 306 306 306 306 306 306 306 306 305 306 306 306 306 307 306 305 305 305 304 304 303 303 303 302 303 303 304 304 304 303 303 304 304 304 304 303 303 303 303
306 306 305 305 305 305 305 305 305 305 305 305 305 305 306 305 306 306 305 305 304 304 304 303 302 302 302 302 302 303 304 304 304 304 303 304 303 303 303 303 303 302
305 304 304 304 304 305 305 304 304 305 304 304 305 305 305 305 305 305 305 305 304 304 303 303 302 301 301 301 301 301 302 303 304 303 303 304 304 303 303 303 302 302
303 304 304 304 304 304 304 305 304 304 304 305 305 304 304 304 304 304 305 305 305 304 303 302 301 300 300 300 300 300 301 303 304 303 304 304 304 303 303 302 302 302
303 304 304 304 304 304 304 304 304 304 304 304 304 304 305 304 304 305 304 304 304 303 302 301 301 300 300 298 299 298 301 303 303 303 303 302 302 302 302 302 302 302
302 303 303 303 303 303 303 304 304 304 304 304 303 303 304 304 304 305 304 304 303 302 302 301 300 300 296 293 294 297 300 302 304 303 303 302 302 301 301 301 301 301
302 302 302 302 302 303 303 302 303 304 304 303 303 303 304 304 304 304 304 303 303 302 301 301 300 298 292 292 292 292 297 302 302 302 302 302 301 300 299 300 300 300
301 301 301 301 302 301 302 302 303 302 302 303 303 303 304 304 304 303 303 304 303 303 302 301 301 294 291 292 292 291 293 299 303 302 302 301 300 300 299 299 298 298
301 301 301 301 301 301 302 302 302 302 302 302 302 303 304 303 303 303 303 303 303 302 301 300 300 293 291 291 292 291 291 295 302 301 301 300 300 300 299 298 298 297
301 301 300 300 301 301 301 301 301 301 302 303 303 303 303 302 303 302 302 303 302 302 302 301 299 294 291 291 291 290 291 294 302 301 301 300 299 299 299 298 298 297
301 300 300 300 300 301 301 301 301 302 301 302 302 302 301 301 301 302 302 302 302 302 302 300 298 291 291 290 291 291 290 295 302 301 300 300 300 300 300 299 298 298
301 301 300 300 300 300 300 300 301 301 301 301 301 301 302 301 301 302 301 301 301 302 301 300 298 291 291 291 290 291 291 301 300 300 299 299 300 300 300 299 298 298
301 301 300 300 300 300 300 300 300 301 301 302 301 301 300 300 301 301 301 301 300 301 301 301 300 294 291 291 291 290 294 300 299 299 299 299 299 299 299 299 299 298
301 301 300 300 300 299 300 300 301 301 301 302 300 300 299 300 301 301 301 301 300 299 300 300 300 296 291 291 291 290 293 299 298 298 298 298 299 299 299 299 299 299
301 301 301 300 300 300 301 300 300 301 301 302 301 301 300 300 300 300 300 301 301 301 298 299 300 298 292 291 290 291 294 299 298 297 297 298 298 298 299 298 298 298
302 302 301 301 300 301 301 300 301 301 302 301 301 300 300 300 300 300 300 300 301 301 300 300 299 300 297 291 291 291 291 296 298 297 296 297 297 296 296 297 297 298
Wind_Speed
7 7 7 6 6 6 6 6 6 6 6 6 6 6 7 6 6 6 6 7 7 8 8 8 8 8 7 6 7 6 7 8 8 8 9 9 8 10 9 11 10 9
9 8 7 7 6 6 6 6 6 6 6 6 6 6 6 6 7 7 7 8 8 9 9 8 8 9 9 7 7 6 6 7 8 7 8 10 9 9 10 11 10 10
9 9 9 8 7 7 7 7 7 6 6 7 7 6 5 5 6 7 7 8 8 8 9 9 9 9 9 8 7 7 7 8 8 8 8 9 9 9 9 9 9 10
9 9 8 8 7 7 7 7 7 7 7 7 7 5 5 5 6 7 7 8 8 9 9 10 10 9 9 9 8 7 8 8 9 9 8 8 8 9 9 9 9 10
9 8 8 8 7 8 7 8 8 8 8 7 6 6 6 6 6 7 7 8 8 9 9 10 10 10 9 9 9 9 9 8 9 9 8 8 8 8 8 9 10 11
9 9 9 9 8 8 8 8 7 7 7 6 6 6 6 6 7 7 8 9 9 9 10 10 10 10 10 10 10 10 9 9 10 10 10 9 9 9 8 9 10 10
10 9 10 9 9 8 8 8 7 7 6 6 6 7 6 7 7 8 8 8 9 10 10 10 10 10 10 9 10 10 9 9 10 11 10 9 9 10 9 9 10 11
9 8 8 8 8 8 8 8 7 7 6 6 7 7 7 7 8 7 7 8 8 10 10 11 11 11 10 10 10 10 10 8 9 10 10 10 9 10 11 9 10 11
8 8 8 8 8 7 8 7 7 7 6 7 7 7 7 7 7 8 8 9 9 9 11 11 12 11 10 11 10 11 11 10 10 10 10 10 11 11 11 10 11 11
8 8 8 7 8 7 8 7 6 6 6 7 7 7 7 7 8 8 8 9 9 10 11 12 12 12 12 11 11 11 11 11 11 11 11 11 11 11 11 11 12 12
8 8 8 8 8 7 7 7 7 6 6 7 7 8 8 7 7 8 8 9 9 10 11 12 12 13 13 12 11 11 11 10 11 10 10 10 10 10 11 11 12 12
8 8 8 8 7 7 7 7 7 7 7 7 7 8 7 7 8 7 7 8 9 10 11 12 12 12 13 13 12 12 10 10 10 10 10 10 10 10 11 11 11 13
8 7 7 7 7 7 6 7 7 7 7 7 7 7 7 7 7 8 7 8 9 9 10 11 12 13 13 13 13 13 12 10 10 10 10 8 10 10 10 11 12 13
7 7 7 7 7 7 7 7 7 7 7 7 7 7 8 8 8 8 7 7 8 9 10 10 12 12 13 13 13 13 12 10 9 10 10 10 10 10 11 12 13 14
7 6 7 7 7 7 7 7 7 7 7 7 7 7 6 7 8 8 8 8 8 9 10 10 11 11 10 11 12 14 12 10 10 10 10 10 10 11 11 12 13 13
8 7 7 7 7 8 8 7 7 7 7 7 8 7 7 7 8 8 8 8 8 9 10 10 11 9 12 16 14 13 12 9 8 10 10 10 10 11 12 13 14 13
7 7 7 8 8 8 7 8 8 7 7 7 8 7 7 7 8 8 8 7 8 9 10 10 10 9 14 14 16 18 13 10 9 10 10 10 11 13 13 13 14 14
8 8 8 8 8 8 8 8 7 7 7 7 7 8 7 7 8 8 8 7 7 8 9 10 9 12 14 16 17 20 16 12 8 9 10 10 12 13 12 13 14 14
8 8 9 8 8 8 7 7 8 8 8 7 8 7 7 8 9 8 8 8 7 8 9 10 11 15 15 17 18 20 19 16 8 10 10 11 13 13 13 13 13 14
9 9 9 9 8 8 8 8 8 8 7 6 6 7 7 8 9 9 8 8 8 8 8 10 12 13 15 17 18 20 19 17 9 10 11 11 12 12 12 13 13 14
9 9 9 9 8 8 8 8 8 7 7 7 6 7 7 7 7 8 8 8 8 8 8 10 10 14 15 17 18 19 21 16 10 9 11 11 12 13 12 13 14 14
9 9 8 8 8 8 8 8 7 7 7 7 6 6 7 7 7 7 8 9 8 8 8 9 10 13 15 16 18 19 22 9 11 10 11 12 12 13 12 12 13 14
9 9 8 8 8 8 8 8 7 7 6 6 7 7 7 7 7 7 7 8 9 9 8 8 9 12 15 16 17 20 16 10 10 10 10 12 12 13 12 12 13 14
9 8 8 8 8 8 7 7 6 6 6 5 7 7 7 6 6 6 7 7 8 9 8 7 8 11 14 14 16 18 17 11 11 10 11 12 12 12 11 12 14 12
8 8 8 8 8 7 6 7 6 6 5 5 5 6 6 6 6 6 6 6 6 7 8 8 8 10 13 13 15 16 15 11 11 11 12 12 11 12 12 12 13 12
7 8 7 7 8 7 6 6 5 5 5 5 5 6 6 5 5 6 6 6 6 6 6 8 8 9 11 11 13 13 15 13 10 11 12 11 11 11 11 12 12 13
Wind_Direction
80 84 81 79 75 70 67 76 79 76 73 72 68 60 56 51 38 41 38 39 34 30 25 20 19 18 12 23 21 24 24 19 17 9 359 355 350 348 349 347 343 343
79 81 84 81 78 76 78 73 74 76 74 72 71 69 60 52 47 42 39 38 39 34 28 26 24 22 19 18 17 19 21 22 16 12 7 5 1 352 352 350 346 342
80 81 80 80 81 83 81 79 79 78 79 79 77 68 65 57 53 50 43 38 38 35 33 30 28 26 24 20 15 20 17 17 13 6 6 11 4 0 355 352 352 345
78 77 79 81 82 82 81 84 85 84 83 82 74 69 70 66 61 56 51 43 41 40 37 35 32 28 26 24 21 23 15 19 12 3 6 9 6 358 357 352 351 349
80 79 79 82 83 83 87 91 88 84 81 78 77 70 67 65 62 56 52 48 44 43 38 38 34 31 26 28 25 24 19 17 12 4 2 2 3 359 354 351 351 348
83 83 82 84 85 86 85 82 82 85 81 75 69 69 65 60 58 56 51 51 47 45 43 39 37 32 29 27 26 26 20 16 11 5 4 5 360 1 355 350 349 347
87 86 86 84 81 80 81 77 76 72 70 70 68 62 61 60 56 51 51 48 49 45 41 39 38 35 30 27 26 23 22 14 10 7 6 5 358 359 360 355 352 348
85 82 79 76 77 77 77 77 74 72 72 72 69 59 55 57 55 53 51 51 47 44 41 38 35 35 29 28 23 21 19 15 7 4 3 1 358 359 0 359 354 353
85 82 80 78 77 75 74 76 74 71 67 68 65 65 57 53 52 52 49 48 48 45 40 36 32 29 26 22 20 16 13 12 7 4 1 358 358 359 359 357 357 356
83 81 78 78 79 74 73 71 71 70 68 64 61 58 59 54 50 48 49 46 45 44 40 36 30 25 22 17 14 8 7 4 2 2 1 359 358 358 357 356 358 356
86 83 82 78 75 73 70 71 70 69 62 63 63 60 53 53 52 50 50 50 46 42 40 36 30 24 17 12 9 4 0 360 359 359 357 359 1 357 359 358 355 356
88 84 80 78 78 77 73 69 68 67 68 63 59 62 58 54 56 52 48 52 49 46 41 37 33 24 17 9 4 359 356 356 358 357 357 1 0 2 2 1 356 357
85 83 83 81 77 74 74 73 69 67 67 67 62 61 60 59 55 59 54 52 52 49 43 38 33 26 17 8 2 357 352 353 359 359 360 4 3 4 4 1 360 359
91 89 84 80 79 77 73 70 71 70 69 69 67 62 60 57 54 58 61 57 55 53 45 38 32 26 19 7 359 355 348 350 357 2 3 6 6 4 5 3 1 360
95 89 86 84 81 78 76 74 72 70 71 71 69 67 58 55 55 57 59 62 60 55 48 40 33 24 15 358 352 351 349 351 359 4 6 9 6 4 5 4 1 1
98 94 88 84 82 79 76 75 74 73 71 69 66 63 60 55 58 58 58 59 59 55 49 39 30 25 355 346 344 347 344 350 358 8 10 8 5 4 4 4 1 359
96 93 91 86 81 80 79 76 75 74 72 69 66 62 61 60 57 62 59 56 57 56 47 38 32 12 346 348 342 343 344 351 7 8 8 8 9 6 4 2 360 356
100 96 90 86 82 78 77 78 79 77 74 71 71 68 64 62 61 59 59 57 56 55 47 39 35 10 349 354 347 346 341 333 2 9 11 6 12 6 3 2 358 355
103 98 92 88 82 80 79 80 78 79 78 76 72 70 69 63 59 58 55 51 52 52 49 41 31 11 355 359 350 346 341 331 16 13 10 11 9 6 3 1 0 355
105 99 94 90 86 82 81 79 79 76 78 78 79 75 68 65 61 57 53 50 45 44 51 45 30 10 360 0 353 344 341 327 23 10 11 10 8 7 2 2 1 356
108 102 98 95 90 86 82 79 76 76 74 74 73 67 65 62 57 56 53 48 43 41 46 48 38 15 6 0 358 346 340 317 20 9 11 6 6 4 4 4 3 359
111 107 104 102 99 93 87 81 77 75 76 74 73 72 69 67 62 57 54 49 44 38 40 48 45 27 10 5 357 354 331 352 10 12 7 7 5 2 4 6 5 360
115 110 104 103 100 97 90 84 81 77 73 73 73 70 68 66 66 61 55 51 47 38 32 44 43 29 14 8 0 354 342 4 10 9 7 7 7 5 6 3 6 3
119 113 110 105 101 96 92 89 85 81 76 65 67 68 67 64 68 69 65 58 51 45 24 32 43 41 20 10 4 357 344 350 16 5 5 8 8 7 4 4 4 28
118 113 109 105 101 97 94 92 84 79 78 76 76 75 70 70 62 65 65 60 56 56 38 29 35 46 27 11 7 0 352 352 15 8 6 6 5 4 6 1 3 11
120 117 112 107 104 101 97 91 90 83 74 71 67 66 68 67 67 65 61 58 51 49 51 39 29 34 32 10 9 1 356 340 8 11 4 2 4 4 359 3 3 360